Wind_Speed
69 65 62 59 57 53 50 48 48 51 55 55 56 59 61 62 63 64 66 67 67 69 69 68 67 66 64 64 66 68 70 71 72 73 73 74 75 77 78 80 81 82 83 85 87 88 90 90 93 94 94 94
67 63 60 58 56 52 49 47 47 50 55 57 56 59 62 62 64 65 67 67 68 69 70 70 70 70 70 68 67 68 71 72 73 74 73 73 75 78 79 79 80 80 81 82 84 86 87 89 92 94 93 94
65 62 58 57 54 51 49 47 46 49 55 58 56 60 63 62 64 66 67 68 69 71 72 72 72 72 73 73 72 71 71 72 73 75 75 75 76 79 79 79 80 80 80 81 82 84 85 86 89 92 92 92
64 62 58 56 54 50 49 47 47 49 54 58 59 61 62 59 61 65 67 70 72 74 74 75 75 76 76 75 75 75 74 72 72 73 76 78 78 79 80 79 80 80 80 80 81 82 84 85 86 89 90 90
64 61 58 55 53 51 48 47 47 49 53 59 62 62 62 59 61 65 68 71 74 75 77 78 79 79 78 78 78 78 78 75 72 73 75 77 77 80 82 82 82 82 81 81 81 81 82 83 84 85 87 88
63 61 58 55 54 51 49 48 48 50 53 59 64 65 66 64 65 68 70 73 76 78 79 81 83 83 82 80 81 81 81 79 77 76 76 77 77 79 83 84 84 84 84 82 80 80 80 81 82 83 84 85
64 60 58 56 54 52 50 49 49 51 55 60 64 67 69 69 69 72 74 76 79 82 84 85 86 86 86 84 83 84 83 83 82 81 80 80 79 79 81 83 84 85 85 84 81 80 80 80 81 81 82 83
65 61 58 56 55 53 52 51 50 52 54 59 64 67 71 72 74 77 79 81 83 86 89 89 88 88 89 88 87 86 86 86 86 85 85 83 81 80 81 82 85 85 83 83 83 81 80 80 81 80 81 82
67 62 59 57 56 54 53 52 52 52 53 58 63 66 70 73 76 79 82 85 87 90 93 93 91 89 89 90 91 90 89 88 88 88 88 88 85 83 83 84 85 85 83 81 80 81 82 82 82 82 82 81
68 65 61 59 57 55 54 54 53 53 54 57 62 65 69 73 76 81 85 88 91 94 95 95 94 93 92 93 95 94 92 91 91 91 91 91 91 89 88 87 86 85 84 82 79 80 82 84 85 85 84 83
69 67 64 61 59 57 56 55 55 56 56 57 61 65 68 73 79 84 88 90 93 95 97 96 96 96 96 97 97 96 95 94 94 94 94 94 94 94 93 92 91 88 86 85 82 80 81 83 85 85 85 84
70 68 66 64 61 59 57 57 57 58 58 58 61 66 70 75 82 87 90 91 93 96 98 98 98 98 98 98 99 99 97 96 96 97 97 98 97 96 95 94 95 93 90 88 86 83 82 82 83 83 84 85
72 70 68 66 64 61 59 58 58 59 60 60 63 67 72 77 83 88 91 93 95 97 99 100 101 100 99 97 98 101 101 98 98 99 100 100 100 99 98 96 96 96 94 93 90 86 84 84 83 82 82 84
74 72 70 68 66 63 61 60 60 61 62 63 64 68 72 77 83 89 92 93 96 99 101 102 103 103 102 99 97 100 103 101 100 101 102 102 103 102 101 100 99 98 97 97 95 91 88 87 87 85 83 83
75 73 72 70 69 66 64 62 61 62 63 64 66 69 73 76 81 88 92 93 95 99 102 103 104 104 104 103 100 99 102 104 103 102 103 104 105 105 104 103 102 101 100 99 98 96 94 93 92 91 90 88
76 75 73 72 71 69 67 65 63 64 65 66 68 70 73 76 79 85 89 92 94 98 102 104 105 106 105 105 104 102 102 105 105 104 104 106 107 108 107 107 106 105 104 103 101 99 98 98 97 96 96 95
80 77 75 74 73 72 71 68 67 66 66 67 69 71 74 76 79 83 86 90 94 97 100 104 106 108 107 106 106 106 105 106 107 107 107 107 108 109 109 109 108 108 107 106 105 103 101 100 100 100 100 99
83 81 78 76 75 75 74 72 70 69 69 69 71 73 74 77 80 82 84 88 92 95 99 103 107 109 109 108 108 108 108 107 108 109 110 110 109 109 110 109 109 109 108 108 107 106 105 104 102 101 101 101
86 84 82 80 77 77 77 76 74 72 71 72 73 74 75 77 80 82 84 86 89 93 97 101 105 107 108 109 110 110 110 110 109 110 111 111 111 111 110 110 110 109 109 109 109 108 107 106 105 103 102 103
90 88 86 84 82 80 79 79 78 76 74 74 75 76 77 79 80 82 84 86 88 91 94 98 101 104 107 110 111 111 111 112 112 111 111 111 113 113 113 112 111 111 110 110 110 110 110 109 108 106 105 104
93 92 90 88 86 84 81 80 81 80 78 77 78 79 79 80 81 83 85 87 88 90 92 95 97 100 104 108 110 111 112 113 114 114 114 113 112 113 114 114 114 113 112 112 111 111 111 111 110 109 108 107
93 94 93 92 90 88 86 83 82 83 82 80 80 81 82 82 82 84 86 87 88 90 92 94 96 97 100 104 107 109 111 113 115 116 117 116 113 111 112 114 116 116 115 114 113 113 112 113 112 112 111 111
95 94 94 94 94 93 91 88 85 85 85 84 83 83 84 84 84 85 87 88 89 90 92 94 96 96 98 100 103 107 110 113 115 116 117 118 116 113 112 112 115 116 117 118 117 116 115 115 114 113 113 112
97 96 96 96 96 95 95 93 90 88 86 86 86 86 86 86 86 87 88 88 90 91 92 94 96 97 98 99 101 104 107 111 114 116 118 118 117 115 114 113 113 114 116 118 119 119 118 117 116 115 114 113
99 99 98 98 98 97 97 96 96 93 90 89 89 88 88 88 88 89 90 90 91 92 93 95 96 97 98 99 101 102 104 107 111 115 117 118 117 117 117 116 116 115 114 115 117 119 120 120 119 118 116 114
101 101 101 101 100 100 99 99 98 98 96 94 92 91 91 90 90 91 92 93 93 93 95 96 97 98 99 100 101 102 104 106 109 111 114 115 116 118 119 120 120 119 116 114 114 116 118 119 120 120 119 117
103 103 103 103 103 102 102 101 101 100 100 99 97 95 94 94 93 93 94 95 95 95 97 98 98 99 100 101 101 102 104 106 108 109 110 111 113 117 119 121 121 121 119 116 114 114 114 116 118 119 120 119
105 105 105 105 105 105 104 104 103 103 102 102 102 100 99 97 97 97 97 97 96 98 100 100 99 100 101 102 103 103 104 106 108 109 109 109 111 115 118 119 120 121 121 120 118 115 114 114 115 116 117 118
107 107 107 107 107 107 107 106 106 106 105 105 105 104 103 102 101 100 100 100 99 99 102 102 101 101 102 103 104 105 106 107 108 109 109 109 111 114 116 117 118 120 121 122 121 119 116 115 114 114 115 117
109 109 109 109 109 109 109 109 109 108 108 108 107 107 106 105 105 104 104 103 102 101 104 105 103 103 105 105 105 106 107 108 109 109 109 110 111 113 115 116 117 118 120 122 122 121 119 117 115 114 115 116
110 110 111 111 111 111 111 111 111 111 111 110 110 109 109 108 108 108 107 107 106 105 105 107 106 105 106 108 108 108 109 109 110 110 110 110 111 113 115 116 117 117 119 120 121 121 120 119 118 117 117 117
Wind_Direction
286 284 282 279 275 271 266 260 254 250 248 246 242 241 241 240 240 241 242 243 243 243 243 244 245 245 246 247 247 245 244 244 244 242 240 239 239 238 237 237 238 238 238 239 239 239 238 238 239 240 240 240
286 283 281 278 275 271 266 260 254 248 245 245 243 240 239 238 238 238 241 242 243 244 244 244 244 244 243 244 246 247 245 243 244 244 242 240 239 238 238 238 238 238 239 239 240 240 239 239 239 239 239 240
285 283 280 278 274 271 267 261 253 246 243 242 240 238 238 236 236 237 239 241 243 243 244 244 243 243 243 243 244 246 247 246 244 244 243 242 240 239 238 238 238 238 239 239 240 240 240 240 240 240 239 240
285 282 280 278 275 271 268 262 254 248 243 239 237 237 239 236 234 236 237 239 241 242 243 243 243 242 242 243 243 243 246 247 247 245 243 242 241 241 239 238 238 238 239 240 240 240 240 240 240 241 240 240
284 282 280 278 275 272 268 263 256 250 244 239 235 235 235 233 231 233 236 237 239 241 242 242 241 241 241 242 242 242 243 244 245 246 245 242 241 241 240 239 238 238 238 239 240 240 240 240 240 241 241 241
283 281 280 278 276 272 268 264 258 251 245 240 237 234 231 229 227 229 233 236 238 239 239 240 240 239 239 240 241 242 242 241 242 245 246 246 243 243 242 241 240 239 239 238 239 240 241 241 241 241 241 241
282 280 279 278 276 273 269 265 259 253 248 244 241 237 232 229 226 227 230 233 236 237 237 238 239 239 238 238 239 240 241 241 242 242 244 246 247 246 245 244 243 241 241 240 240 241 242 242 243 242 242 242
281 279 278 277 275 273 270 265 260 255 251 248 245 241 236 232 227 227 230 232 234 236 237 237 238 239 239 238 237 238 239 240 241 242 243 244 246 247 247 247 246 244 242 242 242 242 243 244 243 243 243 242
281 279 277 276 274 272 269 265 261 256 252 250 248 245 240 236 232 229 230 232 235 237 238 238 238 239 240 239 238 237 238 239 240 241 242 243 244 245 247 248 248 247 244 242 243 243 243 244 244 244 243 243
280 279 277 275 273 271 268 265 261 256 251 248 248 247 243 238 234 232 232 232 235 238 240 240 239 238 239 240 239 238 237 238 239 240 241 243 243 243 245 247 248 249 247 244 242 242 242 243 244 244 244 244
280 279 278 275 273 270 267 264 261 257 252 247 245 245 244 238 232 232 233 234 235 237 240 242 242 240 239 240 241 240 238 237 238 239 240 241 243 244 244 246 248 248 249 248 246 243 242 242 244 245 245 245
279 278 277 275 273 269 266 263 260 257 253 248 244 242 240 237 233 233 234 235 237 238 240 241 243 244 243 242 242 242 241 238 237 238 240 240 241 242 243 244 247 248 248 249 249 248 245 243 243 245 246 246
278 277 276 275 272 269 266 262 259 256 253 249 245 241 239 237 235 235 235 236 237 238 240 241 243 245 246 245 243 243 244 241 239 238 239 240 240 241 242 243 244 246 247 247 248 248 249 247 245 245 245 246
277 276 275 274 272 269 266 262 259 256 253 250 246 243 241 239 237 236 237 237 237 238 239 241 242 244 246 248 246 245 245 245 242 241 240 240 241 241 241 242 242 243 245 246 247 246 247 249 249 247 246 247
276 275 274 273 271 269 266 263 259 256 253 250 248 245 243 241 239 238 239 239 239 238 239 240 242 243 245 247 248 246 246 246 245 244 242 241 241 241 241 242 242 242 243 244 246 246 246 247 249 250 250 249
275 274 273 272 271 269 267 264 261 257 254 251 249 246 245 243 241 240 240 241 241 240 240 241 242 244 245 247 248 247 246 246 247 246 245 244 243 242 242 242 242 242 243 243 244 245 246 246 247 249 251 251
275 273 272 271 271 270 267 265 262 258 256 253 250 248 246 245 244 242 241 241 241 241 241 241 242 243 245 246 248 248 247 246 246 247 246 245 245 244 244 243 243 243 243 244 244 245 245 246 247 248 250 251
275 274 272 270 269 269 268 265 262 260 257 254 251 249 247 246 245 244 242 242 241 241 241 241 242 243 245 246 247 248 248 247 246 246 246 246 246 246 245 245 245 244 243 243 244 244 245 246 247 248 249 251
275 274 272 271 269 267 267 266 263 260 258 256 253 250 248 246 246 246 245 243 242 242 241 241 241 242 244 245 247 247 248 249 248 246 246 246 246 246 246 245 245 245 244 244 244 244 244 245 246 246 247 249
275 274 272 271 269 267 265 265 263 261 258 256 255 252 250 247 246 246 245 245 244 243 242 242 242 242 243 244 245 246 247 248 249 249 248 246 246 246 246 246 245 245 244 244 244 244 244 244 245 245 246 247
274 274 273 271 269 267 265 264 263 262 259 256 255 254 252 249 247 246 245 245 245 244 244 243 243 242 243 243 244 245 246 247 249 250 250 248 246 246 246 246 246 245 245 244 244 244 245 245 244 244 244 245
272 272 272 272 270 268 266 263 262 261 260 258 256 255 253 251 249 247 246 245 245 245 245 244 244 243 243 244 244 244 245 246 247 248 250 250 249 248 247 246 246 246 246 245 245 244 244 245 245 245 244 244
271 270 270 270 270 269 268 265 262 261 260 259 257 255 254 253 251 249 247 246 246 245 245 245 245 244 243 243 244 244 245 245 247 247 249 250 250 250 248 247 246 246 246 246 245 245 244 244 245 245 245 245
271 270 270 269 269 269 269 267 265 262 260 259 258 256 255 254 253 252 250 248 247 246 246 246 246 245 244 244 243 244 244 245 246 247 248 249 250 250 250 249 248 247 245 245 245 245 245 245 245 245 245 246
271 270 270 269 269 268 268 268 267 265 262 259 258 257 255 254 253 253 252 250 248 247 246 246 246 246 246 245 244 244 244 244 245 246 247 248 249 250 251 251 250 249 246 245 245 245 245 245 246 246 246 245
271 270 270 269 268 268 268 267 267 266 265 262 260 258 257 255 253 252 252 252 250 249 247 247 246 246 246 246 245 245 245 244 244 245 246 247 248 249 250 250 250 250 249 247 245 244 244 244 245 246 246 246
270 269 269 269 268 268 267 266 266 266 265 264 262 260 258 257 255 253 252 252 252 251 250 248 247 247 246 246 245 245 245 245 245 245 245 246 247 248 249 249 250 251 251 250 248 246 244 244 244 244 245 245
270 269 269 268 268 267 266 266 265 265 264 264 263 262 260 258 257 255 254 252 252 252 251 250 249 248 247 247 246 245 245 245 246 246 246 246 246 247 248 248 249 250 251 251 250 249 247 245 244 244 244 245
269 269 268 268 267 267 266 266 265 264 263 263 262 262 261 260 258 257 256 254 252 252 252 252 251 250 249 248 247 246 246 245 245 246 246 246 246 247 248 248 249 249 250 251 251 251 249 248 247 246 245 245
269 268 268 267 267 266 266 265 265 264 263 263 262 261 261 260 259 258 257 256 254 252 252 252 251 251 251 250 248 248 247 247 246 246 246 246 246 247 247 248 248 249 249 250 251 251 251 250 249 248 247 246
268 268 267 267 266 266 265 265 264 264 264 263 262 261 261 260 259 258 257 257 255 254 253 253 252 251 251 251 250 249 248 248 247 247 246 246 246 246 247 248 248 248 249 249 250 251 251 251 250 249 248 247
Height
10635 10634 10634 10633 10634 10637 10640 10642 10641 10640 10639 10638 10637 10636 10637 10638 10639 10641 10640 10641 10642 10642 10642 10641 10641 10641 10641 10641 10641 10643 10645 10647 10648 10650 10655 10658 10659 10660 10661 10663 10666 10669 10670 10672 10673 10675 10678 10680 10679 10681 10687 10690
10626 10626 10627 10625 10626 10629 10632 10634 10634 10634 10632 10631 10632 10631 10631 10632 10633 10633 10633 10635 10636 10635 10636 10634 10634 10633 10634 10634 10634 10635 10637 10640 10641 10643 10646 10649 10650 10650 10653 10655 10656 10659 10661 10662 10664 10667 10669 10670 10669 10673 10679 10681
10618 10618 10619 10618 10618 10621 10623 10626 10627 10626 10624 10625 10626 10623 10623 10627 10627 10627 10628 10629 10629 10628 10628 10628 10628 10626 10626 10628 10629 10629 10629 10631 10634 10635 10637 10640 10640 10641 10644 10645 10647 10649 10652 10653 10655 10657 10659 10661 10661 10665 10670 10674
10610 10610 10611 10611 10610 10613 10616 10618 10618 10618 10618 10618 10617 10615 10616 10620 10621 10621 10622 10622 10621 10621 10620 10620 10621 10620 10619 10620 10622 10623 10623 10624 10625 10627 10629 10631 10632 10633 10635 10636 10638 10640 10643 10644 10646 10648 10650 10652 10654 10657 10661 10665
10602 10601 10603 10603 10603 10605 10607 10609 10610 10610 10610 10609 10609 10608 10609 10612 10612 10612 10613 10614 10612 10612 10611 10611 10612 10612 10612 10613 10614 10616 10616 10618 10618 10618 10620 10623 10625 10625 10625 10627 10629 10631 10633 10635 10637 10640 10642 10643 10646 10649 10651 10656
10594 10594 10594 10595 10594 10596 10599 10601 10602 10602 10601 10600 10600 10599 10599 10601 10601 10602 10603 10603 10601 10601 10600 10600 10601 10602 10604 10605 10607 10608 10609 10611 10611 10612 10612 10614 10617 10617 10617 10619 10621 10623 10624 10627 10630 10632 10633 10635 10638 10641 10643 10646
10587 10586 10585 10586 10586 10588 10590 10592 10593 10593 10593 10590 10590 10590 10589 10591 10591 10591 10591 10590 10589 10588 10588 10588 10590 10592 10595 10597 10598 10600 10601 10603 10604 10605 10605 10606 10609 10609 10610 10612 10613 10616 10618 10621 10623 10625 10626 10627 10630 10632 10635 10638
10578 10579 10578 10577 10578 10580 10581 10583 10584 10585 10586 10584 10582 10582 10581 10582 10582 10581 10580 10580 10578 10576 10576 10578 10580 10582 10584 10588 10590 10591 10593 10595 10596 10597 10598 10600 10602 10601 10602 10604 10604 10607 10612 10614 10617 10619 10619 10620 10622 10624 10626 10629
10568 10570 10570 10569 10570 10572 10573 10574 10575 10576 10578 10577 10575 10575 10574 10573 10574 10573 10572 10571 10569 10566 10566 10568 10571 10573 10575 10577 10579 10581 10584 10586 10588 10590 10591 10592 10594 10594 10594 10595 10596 10598 10603 10607 10609 10611 10612 10612 10614 10616 10618 10621
10560 10560 10561 10562 10562 10563 10565 10565 10567 10567 10568 10568 10567 10568 10568 10567 10567 10565 10563 10562 10561 10559 10559 10561 10563 10564 10565 10566 10566 10572 10576 10578 10580 10581 10583 10584 10585 10587 10587 10587 10589 10591 10593 10597 10601 10603 10604 10605 10606 10608 10611 10613
10551 10551 10552 10553 10553 10555 10556 10557 10558 10558 10560 10560 10559 10560 10561 10560 10558 10554 10552 10553 10553 10552 10552 10553 10554 10555 10556 10556 10557 10562 10568 10570 10571 10572 10574 10575 10576 10578 10580 10580 10581 10584 10585 10588 10592 10594 10596 10598 10599 10601 10603 10605
10541 10542 10542 10543 10545 10546 10547 10549 10549 10549 10550 10552 10552 10550 10550 10550 10547 10544 10543 10544 10545 10545 10546 10545 10545 10545 10547 10548 10549 10552 10557 10561 10562 10563 10564 10566 10568 10569 10571 10573 10573 10576 10578 10580 10582 10585 10587 10590 10592 10594 10596 10597
10531 10532 10533 10533 10535 10537 10538 10540 10540 10540 10541 10543 10543 10541 10540 10539 10537 10536 10536 10537 10538 10538 10538 10538 10537 10537 10537 10540 10542 10544 10547 10552 10553 10554 10555 10557 10559 10561 10563 10565 10566 10567 10570 10572 10574 10577 10579 10581 10584 10587 10589 10590
10521 10522 10523 10524 10525 10527 10529 10530 10530 10531 10532 10533 10533 10531 10530 10530 10529 10527 10527 10529 10530 10530 10530 10530 10529 10529 10529 10530 10534 10537 10538 10542 10546 10546 10547 10548 10550 10552 10554 10556 10557 10559 10561 10563 10566 10570 10571 10572 10575 10578 10581 10583
10512 10512 10512 10513 10514 10516 10518 10520 10521 10521 10522 10523 10523 10522 10521 10521 10521 10519 10519 10521 10522 10522 10521 10520 10520 10521 10521 10522 10525 10529 10531 10533 10536 10538 10540 10540 10541 10542 10545 10547 10548 10550 10553 10555 10557 10561 10564 10565 10567 10569 10572 10575
10501 10502 10502 10502 10503 10505 10507 10509 10511 10512 10512 10512 10513 10512 10511 10511 10512 10511 10511 10513 10513 10513 10512 10511 10512 10512 10513 10515 10516 10520 10523 10524 10526 10529 10531 10531 10531 10532 10534 10537 10539 10542 10544 10547 10549 10552 10555 10558 10559 10561 10563 10566
10487 10490 10492 10493 10492 10492 10494 10497 10500 10501 10501 10502 10501 10501 10501 10500 10501 10501 10502 10502 10503 10504 10505 10505 10504 10503 10505 10507 10508 10509 10511 10514 10516 10517 10518 10519 10520 10522 10524 10528 10531 10534 10537 10539 10542 10544 10546 10549 10551 10553 10555 10557
10474 10475 10478 10481 10482 10481 10482 10484 10488 10489 10490 10490 10490 10490 10491 10490 10489 10489 10491 10492 10492 10493 10495 10496 10495 10495 10497 10498 10499 10498 10499 10502 10505 10505 10505 10507 10509 10512 10516 10520 10523 10527 10530 10532 10534 10536 10538 10540 10543 10546 10547 10549
10460 10462 10464 10467 10470 10471 10471 10471 10474 10477 10478 10478 10478 10479 10479 10479 10478 10478 10479 10481 10481 10482 10484 10484 10484 10486 10488 10488 10487 10487 10488 10489 10490 10492 10494 10497 10499 10501 10505 10509 10513 10517 10521 10523 10525 10528 10530 10532 10535 10538 10540 10541
10446 10448 10450 10452 10455 10458 10460 10460 10460 10463 10466 10467 10466 10466 10467 10467 10467 10467 10467 10468 10469 10470 10472 10472 10474 10476 10476 10476 10475 10476 10478 10477 10476 10478 10483 10486 10487 10490 10493 10497 10502 10506 10510 10514 10516 10519 10521 10523 10526 10529 10532 10534
10434 10433 10435 10437 10440 10443 10446 10449 10448 10449 10452 10455 10454 10453 10454 10455 10456 10456 10455 10456 10457 10457 10459 10459 10461 10464 10464 10464 10465 10466 10467 10467 10466 10465 10466 10469 10474 10479 10482 10485 10489 10493 10497 10502 10506 10509 10511 10513 10516 10519 10522 10524
10423 10422 10421 10422 10424 10426 10430 10434 10436 10436 10438 10441 10442 10441 10441 10442 10443 10443 10444 10444 10445 10445 10445 10446 10448 10450 10451 10452 10454 10455 10455 10455 10454 10454 10453 10453 10459 10467 10471 10474 10476 10480 10484 10489 10493 10497 10500 10502 10504 10507 10510 10513
10410 10410 10409 10408 10408 10409 10412 10416 10421 10423 10424 10426 10428 10428 10428 10428 10429 10430 10431 10432 10433 10433 10433 10433 10434 10436 10438 10440 10441 10442 10443 10443 10442 10443 10442 10441 10445 10451 10457 10460 10463 10466 10471 10475 10480 10484 10487 10489 10492 10495 10498 10502
10395 10396 10396 10396 10396 10395 10395 10398 10402 10407 10410 10411 10412 10414 10415 10415 10416 10416 10417 10419 10420 10421 10420 10420 10421 10422 10425 10426 10427 10428 10431 10431 10430 10430 10429 10430 10432 10437 10442 10445 10448 10452 10457 10461 10466 10470 10473 10476 10479 10482 10486 10489
10381 10381 10381 10382 10382 10382 10382 10383 10383 10387 10392 10396 10397 10398 10400 10402 10403 10403 10402 10404 10406 10407 10407 10407 10408 10409 10411 10413 10414 10415 10417 10418 10417 10417 10417 10419 10423 10425 10428 10430 10432 10435 10440 10447 10452 10456 10459 10463 10467 10470 10474 10478
10366 10366 10366 10367 10367 10368 10369 10369 10369 10370 10372 10377 10380 10383 10384 10386 10389 10389 10388 10389 10391 10393 10394 10394 10394 10396 10397 10399 10401 10402 10404 10404 10404 10404 10405 10409 10412 10413 10413 10413 10415 10417 10422 10430 10437 10440 10445 10450 10454 10457 10461 10465
10350 10351 10351 10351 10352 10353 10354 10355 10355 10356 10356 10358 10361 10365 10368 10370 10372 10374 10374 10375 10377 10377 10378 10379 10381 10382 10384 10385 10388 10389 10390 10390 10390 10391 10393 10397 10399 10399 10398 10399 10401 10404 10407 10413 10420 10424 10431 10436 10440 10443 10448 10452
10334 10335 10336 10336 10336 10337 10338 10339 10340 10341 10342 10342 10343 10346 10350 10353 10355 10357 10358 10360 10363 10363 10362 10363 10366 10368 10370 10371 10373 10375 10376 10376 10376 10378 10381 10384 10385 10384 10384 10386 10389 10392 10393 10397 10402 10408 10415 10421 10425 10431 10437 10440
10317 10318 10318 10319 10320 10320 10321 10322 10323 10324 10325 10326 10328 10329 10331 10334 10337 10339 10341 10344 10348 10349 10347 10348 10351 10353 10355 10357 10358 10360 10361 10362 10363 10365 10368 10371 10372 10371 10371 10374 10377 10378 10380 10383 10386 10391 10399 10405 10411 10420 10423 10425
10300 10300 10301 10301 10302 10303 10304 10304 10305 10306 10308 10310 10312 10313 10315 10317 10319 10321 10323 10326 10330 10333 10333 10333 10336 10339 10339 10341 10343 10345 10346 10348 10350 10352 10355 10357 10359 10358 10358 10360 10363 10366 10367 10369 10372 10377 10383 10389 10396 10403 10406 10408
10283 10283 10283 10283 10284 10285 10286 10287 10287 10288 10289 10291 10293 10295 10297 10299 10302 10304 10305 10308 10311 10315 10317 10317 10320 10324 10324 10324 10327 10329 10331 10333 10335 10338 10341 10343 10345 10345 10344 10345 10349 10352 10353 10355 10359 10363 10367 10372 10378 10385 10388 10392